Location: Bacharowice
(49.9333°N, 19.5833°E)
Time: 23:33:47
(UTC+00:00)

Meteor 1-11 Rocket - Pass Details

Date: 11 May 2021
Orbit: 831 x 916 km, 81.2° (Epoch: 21 June)

Event Time Altitude Azimuth Distance (km) Brightness Sun altitude
Rises 20:35:54 0° 346° (NNW) 3,567 8.4 -16.8°
Reaches altitude 10° 20:38:24 10° 345° (NNW) 2,620 7.5 -17.0°
Maximum altitude 20:44:22 73° 262° (W) 954 4.0 -17.5°
Enters shadow 20:48:00 25° 182° (S) 1,761 4.9 -17.7°
